Location: Argonnex
(45.9500°N, 6.1333°E)
Time: 17:00:39
(UTC+00:00)

Cosmos 1455 Rocket - Pass Details

Date: 28 January 2023
Orbit: 604 x 628 km, 82.5° (Epoch: 29 March)

Event Time Altitude Azimuth Distance (km) Brightness Sun altitude
Rises 17:33:08 0° 346° (NNW) 2,896 6.5 -10.3°
Reaches altitude 10° 17:35:25 10° 341° (NNW) 1,981 5.7 -10.7°
Maximum altitude 17:39:39 51° 266° (W) 774 4.0 -11.4°
Drops below altitude 10° 17:43:50 10° 191° (S) 1,952 5.9 -12.1°
Sets 17:46:04 0° 186° (S) 2,848 6.7 -12.5°
